BAW252 MBPV-MYNN

Flight info

Callsign BAW252
Flight time 1h 0m
Altitude 34000
Route ZUMMA
Aircraft B77W/H-SDE1E2E3FGHIJ2J3J4J5M1RWXY/LB1D1

Departure

Time 2026-04-24 21:09
Airport Providenciales International Airport (MBPV)

Arrival

Time 2026-04-24 22:09
Airport Lynden Pindling International Airport (MYNN)
Time Latitude Longitude Altitude Speed Heading
2026-04-24 20:56 21.77638 -72.27427 46 ft 0 kts 33°
2026-04-24 21:05 21.77636 -72.27428 47 ft 2 kts 33°
2026-04-24 21:05 21.77614 -72.27442 43 ft 4 kts 22°
2026-04-24 21:05 21.77588 -72.27450 46 ft 4 kts
2026-04-24 21:06 21.77562 -72.27450 44 ft 4 kts 343°
2026-04-24 21:06 21.77539 -72.27437 43 ft 4 kts 306°
2026-04-24 21:06 21.77533 -72.27418 43 ft 2 kts 241°
2026-04-24 21:06 21.77534 -72.27417 43 ft 0 kts 240°
2026-04-24 21:07 21.77531 -72.27422 46 ft 2 kts 240°
2026-04-24 21:07 21.77519 -72.27438 46 ft 4 kts 226°
2026-04-24 21:08 21.77488 -72.27453 45 ft 7 kts 200°
2026-04-24 21:08 21.77432 -72.27469 43 ft 9 kts 177°
2026-04-24 21:08 21.77399 -72.27402 43 ft 21 kts 95°
2026-04-24 21:08 21.77371 -72.26760 42 ft 152 kts 92°
2026-04-24 21:09 21.77313 -72.25330 856 ft 209 kts 92°
2026-04-24 21:09 21.77221 -72.23787 2699 ft 216 kts 94°
2026-04-24 21:09 21.77119 -72.22091 3494 ft 235 kts 93°
2026-04-24 21:09 21.77011 -72.20304 4507 ft 243 kts 93°
2026-04-24 21:10 21.77214 -72.18459 5256 ft 262 kts 67°
2026-04-24 21:10 21.78359 -72.16899 6220 ft 275 kts 36°
2026-04-24 21:10 21.80134 -72.16096 7258 ft 282 kts
2026-04-24 21:10 21.82106 -72.16079 8337 ft 287 kts 353°
2026-04-24 21:11 21.84095 -72.16370 9505 ft 290 kts 349°
2026-04-24 21:11 21.86110 -72.16721 10531 ft 298 kts 349°
2026-04-24 21:11 21.88244 -72.17092 11041 ft 326 kts 349°
2026-04-24 21:11 21.90609 -72.17482 11303 ft 361 kts 349°
2026-04-24 21:12 21.93172 -72.17875 11974 ft 379 kts 350°
2026-04-24 21:12 21.94919 -72.18135 12618 ft 386 kts 350°
2026-04-24 21:12 21.98402 -72.19049 13737 ft 389 kts 329°
2026-04-24 21:12 22.00541 -72.20807 14642 ft 387 kts 310°
2026-04-24 21:13 22.02300 -72.23002 15677 ft 388 kts 306°
2026-04-24 21:13 22.03927 -72.25339 16707 ft 391 kts 300°
2026-04-24 21:13 22.05360 -72.27837 17717 ft 394 kts 297°
2026-04-24 21:13 22.06746 -72.30404 18634 ft 399 kts 296°
2026-04-24 21:14 22.08126 -72.33014 19497 ft 403 kts 296°
2026-04-24 21:14 22.09519 -72.35658 20369 ft 408 kts 295°
2026-04-24 21:14 22.10933 -72.38330 21224 ft 412 kts 295°
2026-04-24 21:14 22.12367 -72.41027 22073 ft 417 kts 295°
2026-04-24 21:15 22.13823 -72.43755 22883 ft 422 kts 295°
2026-04-24 21:15 22.15300 -72.46515 23643 ft 427 kts 296°
2026-04-24 21:15 22.16799 -72.49307 24304 ft 432 kts 295°
2026-04-24 21:15 22.18312 -72.52123 24973 ft 436 kts 295°
2026-04-24 21:16 22.19838 -72.54964 25627 ft 440 kts 295°
2026-04-24 21:16 22.21378 -72.57832 26278 ft 444 kts 295°
2026-04-24 21:16 22.22933 -72.60729 26913 ft 448 kts 295°
2026-04-24 21:16 22.24499 -72.63650 27560 ft 451 kts 295°
2026-04-24 21:17 22.26077 -72.66594 28187 ft 455 kts 295°
2026-04-24 21:17 22.27646 -72.69522 28759 ft 459 kts 295°
2026-04-24 21:17 22.29247 -72.72513 29328 ft 462 kts 294°
2026-04-24 21:17 22.30336 -72.74550 29694 ft 465 kts 294°
2026-04-24 21:18 22.32482 -72.78561 30507 ft 465 kts 294°
2026-04-24 21:18 22.34097 -72.81577 31136 ft 463 kts 294°
2026-04-24 21:18 22.35727 -72.84624 31770 ft 462 kts 294°
2026-04-24 21:18 22.37311 -72.87589 32330 ft 462 kts 294°
2026-04-24 21:19 22.38937 -72.90637 32893 ft 462 kts 294°
2026-04-24 21:19 22.40518 -72.93602 33459 ft 461 kts 293°
2026-04-24 21:19 22.42119 -72.96606 33966 ft 462 kts 293°
2026-04-24 21:19 22.43727 -72.99631 33933 ft 465 kts 293°
2026-04-24 21:20 22.46966 -73.05728 34172 ft 472 kts 293°
2026-04-24 21:20 22.48599 -73.08801 34603 ft 470 kts 293°
2026-04-24 21:20 22.50246 -73.11894 35154 ft 466 kts 292°
2026-04-24 21:21 22.51835 -73.14877 35702 ft 462 kts 292°
2026-04-24 21:21 22.53430 -73.17874 36283 ft 458 kts 291°
2026-04-24 21:21 22.55012 -73.20854 36773 ft 456 kts 291°
2026-04-24 21:21 22.56586 -73.23823 37202 ft 454 kts 291°
2026-04-24 21:22 22.58151 -73.26781 37619 ft 453 kts 291°
2026-04-24 21:22 22.59716 -73.29739 37990 ft 453 kts 290°
2026-04-24 21:22 22.61289 -73.32721 37940 ft 458 kts 290°
2026-04-24 21:23 22.64441 -73.38691 37942 ft 455 kts 290°
2026-04-24 21:23 22.67569 -73.44604 37948 ft 451 kts 290°
2026-04-24 21:24 22.70697 -73.50534 37949 ft 450 kts 290°
2026-04-24 21:24 22.73778 -73.56384 37949 ft 450 kts 290°
2026-04-24 21:25 22.76877 -73.62278 37955 ft 451 kts 290°
2026-04-24 21:25 22.79980 -73.68185 37962 ft 452 kts 290°
2026-04-24 21:26 22.83099 -73.74126 37959 ft 454 kts 290°
2026-04-24 21:26 22.86221 -73.80079 37956 ft 455 kts 290°
2026-04-24 21:27 22.89348 -73.86048 37951 ft 456 kts 290°
2026-04-24 21:27 22.92477 -73.92027 37979 ft 456 kts 291°
2026-04-24 21:28 22.95613 -73.98028 37960 ft 457 kts 291°
2026-04-24 21:28 22.98749 -74.04036 37964 ft 458 kts 291°
2026-04-24 21:29 23.01886 -74.10054 37957 ft 458 kts 291°
2026-04-24 21:29 23.05022 -74.16074 37936 ft 458 kts 291°
2026-04-24 21:30 23.08153 -74.22095 37961 ft 458 kts 291°
2026-04-24 21:30 23.11280 -74.28113 37962 ft 457 kts 291°
2026-04-24 21:31 23.14402 -74.34131 37964 ft 457 kts 291°
2026-04-24 21:31 23.17523 -74.40153 37952 ft 457 kts 291°
2026-04-24 21:32 23.20621 -74.46139 37951 ft 457 kts 291°
2026-04-24 21:32 23.23735 -74.52162 37956 ft 457 kts 291°
2026-04-24 21:33 23.26847 -74.58189 37954 ft 457 kts 291°
2026-04-24 21:33 23.29958 -74.64220 37952 ft 457 kts 291°
2026-04-24 21:34 23.32561 -74.69275 37969 ft 458 kts 290°
2026-04-24 21:34 23.35671 -74.75318 37955 ft 458 kts 290°
2026-04-24 21:35 23.38779 -74.81366 37953 ft 458 kts 290°
2026-04-24 21:35 23.41864 -74.87373 37957 ft 457 kts 290°
2026-04-24 21:36 23.44965 -74.93421 37956 ft 457 kts 290°
2026-04-24 21:36 23.48083 -74.99511 37956 ft 457 kts 290°
2026-04-24 21:37 23.51180 -75.05565 37962 ft 457 kts 290°
2026-04-24 21:37 23.54253 -75.11581 37965 ft 458 kts 290°
2026-04-24 21:38 23.57346 -75.17643 37958 ft 458 kts 290°
2026-04-24 21:38 23.60436 -75.23707 37957 ft 457 kts 290°
2026-04-24 21:39 23.63524 -75.29774 37961 ft 457 kts 290°
2026-04-24 21:39 23.66609 -75.35843 37959 ft 458 kts 290°
2026-04-24 21:40 23.69693 -75.41919 37976 ft 458 kts 290°
2026-04-24 21:40 23.72778 -75.48004 37963 ft 458 kts 291°
2026-04-24 21:41 23.75857 -75.54081 37960 ft 457 kts 291°
2026-04-24 21:41 23.78929 -75.60153 37951 ft 457 kts 291°
2026-04-24 21:42 23.81991 -75.66214 37957 ft 456 kts 291°
2026-04-24 21:42 23.85047 -75.72272 37961 ft 455 kts 291°
2026-04-24 21:43 23.88097 -75.78325 37961 ft 455 kts 291°
2026-04-24 21:43 23.91142 -75.84377 37965 ft 453 kts 293°
2026-04-24 21:44 23.94140 -75.90329 37497 ft 443 kts 293°
2026-04-24 21:44 23.95621 -75.93277 36903 ft 441 kts 293°
2026-04-24 21:44 23.97094 -75.96213 36162 ft 442 kts 293°
2026-04-24 21:44 23.98586 -75.99199 35411 ft 453 kts 294°
2026-04-24 21:45 24.00105 -76.02240 34970 ft 457 kts 294°
2026-04-24 21:45 24.01631 -76.05288 34661 ft 457 kts 294°
2026-04-24 21:45 24.03162 -76.08345 33980 ft 457 kts 295°
2026-04-24 21:45 24.04682 -76.11376 33320 ft 453 kts 295°
2026-04-24 21:46 24.06186 -76.14377 32696 ft 448 kts 295°
2026-04-24 21:46 24.07677 -76.17355 32095 ft 443 kts 295°
2026-04-24 21:46 24.09148 -76.20297 31542 ft 439 kts 295°
2026-04-24 21:46 24.10605 -76.23216 30968 ft 435 kts 295°
2026-04-24 21:47 24.12047 -76.26106 30396 ft 431 kts 295°
2026-04-24 21:47 24.13478 -76.28978 29810 ft 428 kts 295°
2026-04-24 21:47 24.14895 -76.31824 29176 ft 424 kts 295°
2026-04-24 21:47 24.16301 -76.34647 28568 ft 420 kts 295°
2026-04-24 21:48 24.17672 -76.37403 28016 ft 416 kts 295°
2026-04-24 21:48 24.19050 -76.40175 27451 ft 412 kts 295°
2026-04-24 21:48 24.20414 -76.42919 26900 ft 408 kts 295°
2026-04-24 21:48 24.21765 -76.45640 26355 ft 405 kts 295°
2026-04-24 21:49 24.23104 -76.48338 25824 ft 402 kts 295°
2026-04-24 21:49 24.24434 -76.51017 25287 ft 399 kts 295°
2026-04-24 21:49 24.25754 -76.53681 24762 ft 397 kts 296°
2026-04-24 21:49 24.27067 -76.56332 24228 ft 395 kts 296°
2026-04-24 21:50 24.28374 -76.58970 23697 ft 393 kts 296°
2026-04-24 21:50 24.29674 -76.61597 23103 ft 391 kts 296°
2026-04-24 21:50 24.30967 -76.64210 22536 ft 388 kts 296°
2026-04-24 21:50 24.32250 -76.66803 21995 ft 385 kts 296°
2026-04-24 21:51 24.33522 -76.69376 21492 ft 382 kts 296°
2026-04-24 21:51 24.34782 -76.71927 20973 ft 379 kts 296°
2026-04-24 21:51 24.36033 -76.74460 20474 ft 377 kts 296°
2026-04-24 21:51 24.37276 -76.76980 19964 ft 374 kts 296°
2026-04-24 21:52 24.38510 -76.79483 19474 ft 372 kts 296°
2026-04-24 21:52 24.39739 -76.81975 18970 ft 371 kts 296°
2026-04-24 21:52 24.40964 -76.84463 18458 ft 370 kts 296°
2026-04-24 21:52 24.42185 -76.86944 17905 ft 369 kts 296°
2026-04-24 21:53 24.43402 -76.89417 17373 ft 367 kts 296°
2026-04-24 21:53 24.44613 -76.91877 16855 ft 366 kts 296°
2026-04-24 21:53 24.45817 -76.94326 16356 ft 364 kts 296°
2026-04-24 21:53 24.47014 -76.96763 15860 ft 362 kts 296°
2026-04-24 21:54 24.48205 -76.99189 15363 ft 360 kts 296°
2026-04-24 21:54 24.49393 -77.01608 14865 ft 359 kts 296°
2026-04-24 21:54 24.50575 -77.04019 14378 ft 358 kts 296°
2026-04-24 21:54 24.51755 -77.06426 13875 ft 358 kts 296°
2026-04-24 21:55 24.52935 -77.08833 13324 ft 357 kts 296°
2026-04-24 21:55 24.54110 -77.11230 12806 ft 356 kts 296°
2026-04-24 21:55 24.55311 -77.13597 12304 ft 354 kts 301°
2026-04-24 21:55 24.56791 -77.15751 11885 ft 352 kts 310°
2026-04-24 21:56 24.58491 -77.17629 11625 ft 343 kts 316°
2026-04-24 21:56 24.60273 -77.19322 11363 ft 334 kts 317°
2026-04-24 21:56 24.62020 -77.20977 11109 ft 330 kts 317°
2026-04-24 21:56 24.63742 -77.22611 10886 ft 324 kts 317°
2026-04-24 21:57 24.65429 -77.24214 10626 ft 317 kts 317°
2026-04-24 21:57 24.67078 -77.25784 10382 ft 310 kts 317°
2026-04-24 21:57 24.68634 -77.27266 10123 ft 287 kts 317°
2026-04-24 21:57 24.70138 -77.28700 9943 ft 280 kts 317°
2026-04-24 21:58 24.71573 -77.30072 9716 ft 275 kts 317°
2026-04-24 21:58 24.73002 -77.31440 9503 ft 270 kts 317°
2026-04-24 21:58 24.74414 -77.32793 9297 ft 268 kts 317°
2026-04-24 21:58 24.75818 -77.34138 9106 ft 268 kts 317°
2026-04-24 21:59 24.77225 -77.35487 8910 ft 269 kts 317°
2026-04-24 21:59 24.78639 -77.36843 8684 ft 270 kts 317°
2026-04-24 21:59 24.80052 -77.38198 8490 ft 269 kts 317°
2026-04-24 21:59 24.81464 -77.39551 8285 ft 268 kts 317°
2026-04-24 22:00 24.82870 -77.40899 8082 ft 268 kts 317°
2026-04-24 22:00 24.84273 -77.42245 7889 ft 267 kts 317°
2026-04-24 22:00 24.85678 -77.43594 7683 ft 269 kts 317°
2026-04-24 22:00 24.87088 -77.44948 7493 ft 270 kts 317°
2026-04-24 22:01 24.88506 -77.46310 7282 ft 271 kts 317°
2026-04-24 22:01 24.89923 -77.47670 7063 ft 269 kts 317°
2026-04-24 22:01 24.91321 -77.49014 6866 ft 265 kts 317°
2026-04-24 22:01 24.92704 -77.50343 6669 ft 262 kts 317°
2026-04-24 22:02 24.94073 -77.51660 6463 ft 260 kts 317°
2026-04-24 22:02 24.95431 -77.52967 6254 ft 257 kts 317°
2026-04-24 22:02 24.96771 -77.54256 6053 ft 254 kts 317°
2026-04-24 22:02 24.98102 -77.55538 5861 ft 255 kts 317°
2026-04-24 22:03 24.99453 -77.56839 5683 ft 260 kts 317°
2026-04-24 22:03 25.00826 -77.58163 5513 ft 265 kts 318°
2026-04-24 22:03 25.02219 -77.59505 5268 ft 267 kts 317°
2026-04-24 22:03 25.03600 -77.60833 5131 ft 254 kts 317°
2026-04-24 22:04 25.04881 -77.62065 4967 ft 238 kts 317°
2026-04-24 22:04 25.06100 -77.63241 4841 ft 229 kts 318°
2026-04-24 22:04 25.07450 -77.64042 4482 ft 218 kts 354°
2026-04-24 22:04 25.08854 -77.63730 4161 ft 201 kts 32°
2026-04-24 22:05 25.09878 -77.62752 3999 ft 195 kts 51°
2026-04-24 22:05 25.10623 -77.61475 3942 ft 201 kts 68°
2026-04-24 22:05 25.10886 -77.59981 3579 ft 206 kts 88°
2026-04-24 22:05 25.10932 -77.58363 2980 ft 213 kts 90°
2026-04-24 22:06 25.10968 -77.56737 2344 ft 210 kts 90°
2026-04-24 22:06 25.10962 -77.55129 1883 ft 208 kts 100°
2026-04-24 22:06 25.10392 -77.53711 1697 ft 198 kts 124°
2026-04-24 22:06 25.09564 -77.52551 1613 ft 185 kts 128°
2026-04-24 22:07 25.08746 -77.51548 1601 ft 165 kts 133°
2026-04-24 22:07 25.07974 -77.50695 1500 ft 152 kts 133°
2026-04-24 22:07 25.07228 -77.49859 1195 ft 154 kts 134°
2026-04-24 22:07 25.06485 -77.49031 828 ft 148 kts 134°
2026-04-24 22:08 25.05792 -77.48257 456 ft 139 kts 135°
2026-04-24 22:08 25.05132 -77.47505 48 ft 131 kts 136°
2026-04-24 22:08 25.04516 -77.46829 29 ft 106 kts 134°
2026-04-24 22:08 25.04118 -77.46388 26 ft 67 kts 135°
2026-04-24 22:09 25.03853 -77.46093 29 ft 41 kts 134°
2026-04-24 22:09 25.03766 -77.45990 28 ft 4 kts 116°
2026-04-24 22:09 25.03767 -77.45939 27 ft 10 kts 66°
2026-04-24 22:09 25.03829 -77.45876 27 ft 13 kts 24°
2026-04-24 22:10 25.03916 -77.45909 25 ft 14 kts 321°
2026-04-24 22:10 25.03990 -77.45989 26 ft 15 kts 314°
2026-04-24 22:10 25.04062 -77.46073 25 ft 15 kts 313°
2026-04-24 22:10 25.04136 -77.46156 26 ft 15 kts 316°
2026-04-24 22:11 25.04211 -77.46236 24 ft 15 kts 315°
2026-04-24 22:11 25.04285 -77.46319 24 ft 15 kts 315°
2026-04-24 22:11 25.04359 -77.46401 26 ft 15 kts 314°
2026-04-24 22:11 25.04434 -77.46483 26 ft 15 kts 315°
2026-04-24 22:12 25.04507 -77.46566 25 ft 15 kts 313°
2026-04-24 22:12 25.04582 -77.46648 27 ft 15 kts 315°
2026-04-24 22:12 25.04642 -77.46714 27 ft 4 kts 316°
2026-04-24 22:12 25.04673 -77.46733 26 ft 6 kts 348°
2026-04-24 22:13 25.04716 -77.46722 24 ft 7 kts 30°
2026-04-24 22:13 25.04737 -77.46711 27 ft 2 kts 20°
2026-04-24 22:13 25.04755 -77.46709 24 ft 3 kts
2026-04-24 22:13 25.04778 -77.46716 25 ft 2 kts 336°
2026-04-24 22:14 25.04788 -77.46723 25 ft 1 kts 326°
2026-04-24 22:14 25.04796 -77.46729 25 ft 2 kts 321°
2026-04-24 22:14 25.04799 -77.46732 25 ft 1 kts 325°
2026-04-24 22:14 25.04804 -77.46737 26 ft 0 kts 314°
2026-04-24 22:15 25.04807 -77.46738 22 ft 0 kts 312°